Station TESL1 - 8764044 - Tesoro Marine Terminal, Berwick, Atchafalaya River, LA Image indicating link to RSS feed of recent meteorological observations for station TESL1


Conditions at TESL1 as of
(7:30 am CDT)
1230 GMT on 07/16/2024:
     

Click on the graph icon in the table below to see a time series plot of the last five days of that observation.

5-day plot - Wind Speed Wind Speed (WSPD): 0.0 kts
5-day plot - Wind Gust Wind Gust (GST): 1.0 kts
5-day plot - Atmospheric Pressure Atmospheric Pressure (PRES):30.04 in
5-day plot - Air Temperature Air Temperature (ATMP): 82.8 °F
5-day plot - Water Temperature Water Temperature (WTMP): 86.9 °F
5-day plot - Wind Speed at 10 Meters Wind Speed at 10 meters (WSPD10M): 1.9 kts
5-day plot - Wind Speed at 20 Meters Wind Speed at 20 meters (WSPD20M): 1.9 kts
5-day plot -  Wind Speed, Wind Gust and Atmospheric Pressure Combined plot of Wind Speed, Gust, and Air Pressure
NOS Water Level Observation Network Water Level
Previous observations
TIME
(CDT)
5-day plot - Wind Direction
WDIR
 
5-day plot - Wind Speed
WSPD
kts
5-day plot - Wind Gust
GST
kts
5-day plot - Wave Height
WVHT
ft
5-day plot - Dominant Wave Period
DPD
sec
5-day plot - Average Wave Period
APD
sec
5-day plot - Mean Wave Direction
MWD
 
5-day plot - Atmospheric Pressure
PRES
in
5-day plot - Pressure Tendency
PTDY
in
5-day plot - Air Temperature
ATMP
°F
5-day plot - Water Temperature
WTMP
°F
5-day plot - Dew Point
DEWP
°F
5-day plot - Salinity
SAL
psu
5-day plot - Visibility
VIS
nmi
5-day plot - Tide (above MLLW)
TIDE
ft
2024-07-16 07:24 am E 1.0 1.9----30.04- 82.2 86.9----
2024-07-16 07:18 am- 0.0 1.0----30.04- 81.5 86.9----
2024-07-16 07:12 amENE 1.0 1.9----30.04- 81.0 86.9----
2024-07-16 07:06 am NE 1.0 1.0----30.03- 81.0 86.9----
2024-07-16 07:00 am NE 1.0 1.9----30.03+0.01 81.3 86.9----
2024-07-16 06:54 amENE 1.9 1.9----30.03- 81.0 86.9----
2024-07-16 06:48 am- 0.0 0.0----30.03- 80.4 86.9----
2024-07-16 06:42 am- 0.0 0.0----30.03- 79.7 86.9----
2024-07-16 06:36 am- 0.0 0.0----30.03- 79.5 86.9----
2024-07-16 06:30 am- 0.0 0.0----30.03- 79.3 87.1----
2024-07-16 06:24 am- 0.0 0.0----30.03- 79.2 87.1----
2024-07-16 06:18 am- 0.0 0.0----30.03- 79.0 87.1----
2024-07-16 06:12 am- 0.0 0.0----30.03- 79.0 87.1----
2024-07-16 06:06 am- 0.0 1.0----30.03- 79.2 87.1----
2024-07-16 06:00 am SW 1.0 1.9----30.03+0.00 79.0 87.3----
2024-07-16 05:54 am- 0.0 1.9----30.03- 79.3 87.3----
2024-07-16 05:48 amSSW 1.0 1.9----30.03- 79.5 87.3----
2024-07-16 05:42 am S 1.0 1.0----30.03- 79.3 87.3----
2024-07-16 05:36 am- 0.0 1.0----30.03- 79.2 87.3----
2024-07-16 05:30 am SW 1.0 1.9----30.03- 79.2 87.3----
2024-07-16 05:24 am SW 1.9 1.9----30.03- 79.0 87.3----
2024-07-16 05:18 am SW 2.9 2.9----30.03- 79.0 87.3----
2024-07-16 05:12 am- 0.0 1.0----30.03- 78.8 87.3----
2024-07-16 05:06 am- 0.0 1.0----30.03- 78.6 87.3----
2024-07-16 05:00 am- 0.0 1.0----30.03+0.00 78.6 87.4----
2024-07-16 04:54 am- 0.0 1.9----30.03- 78.6 87.4----
2024-07-16 04:48 amWNW 1.0 1.9----30.03-- 87.4----
2024-07-16 04:42 amWNW 1.0 1.9----30.03-- 87.4----
2024-07-16 04:36 am NW 1.0 1.9----30.02-- 87.4----
2024-07-16 04:30 am NW 1.0 1.9----30.02- 79.2 87.4----
2024-07-16 04:24 am SW 1.0 1.9----30.02- 79.5 87.4----
2024-07-16 04:18 amWSW 1.9 2.9----30.02- 79.5 87.4----
2024-07-16 04:12 amWNW 2.9 4.1----30.02- 79.7 87.4----
2024-07-16 04:06 am W 1.0 1.9----30.03- 79.9 87.4----
2024-07-16 04:00 am SW 1.9 4.1----30.02+0.00 80.2 87.4----
2024-07-16 03:54 amSSW 2.9 5.1----30.03- 80.2 87.4----
2024-07-16 03:48 am SW 2.9 6.0----30.02- 80.4 87.4----
2024-07-16 03:42 amSSW 5.1 7.0----30.02- 80.6 87.4----
2024-07-16 03:36 amSSW 4.1 5.1----30.02- 80.2 87.4----
2024-07-16 03:30 amSSW 1.9 4.1----30.02- 80.1 87.6----
2024-07-16 03:24 amSSW 1.9 4.1----30.02- 80.2 87.6----
2024-07-16 03:18 amSSW 2.9 2.9----30.02- 80.4 87.6----
2024-07-16 03:12 amSSW 2.9 5.1----30.02- 80.4 87.6----
2024-07-16 03:06 am SW 2.9 6.0----30.02- 80.6 87.6----
2024-07-16 03:00 am SW 4.1 8.0----30.02+0.00 80.8 87.6----
2024-07-16 02:54 amSSW 7.0 8.9----30.02- 81.0 87.6----
2024-07-16 02:48 amSSW 5.1 7.0----30.02-- 87.6----
2024-07-16 02:42 am S 1.9 4.1----30.02-- 87.6----
2024-07-16 02:36 am S 4.1 6.0----30.02-- 87.6----
2024-07-16 02:30 am S 5.1 6.0----30.02- 82.2 87.6----
2024-07-16 02:24 amSSE 4.1 6.0----30.03- 82.0 87.6----
2024-07-16 02:18 amSSE 5.1 6.0----30.02- 82.2 87.6----
2024-07-16 02:12 amSSE 2.9 5.1----30.03- 82.0 87.6----
2024-07-16 02:06 am SE 2.9 4.1----30.03- 81.7 87.6----
2024-07-16 02:00 amSSE 1.9 2.9----30.03+0.00 81.7 87.6----
2024-07-16 01:54 am SE 1.9 2.9----30.03- 81.7 87.6----
2024-07-16 01:48 amSSE 1.9 2.9----30.03- 81.7 87.6----
2024-07-16 01:42 am S 1.9 2.9----30.03- 81.3 87.6----
2024-07-16 01:36 am SE 1.0 1.9----30.03- 81.3 87.6----
2024-07-16 01:30 am- 0.0 4.1----30.03- 81.3 87.6----
2024-07-16 01:24 amSSE 1.0 1.9----30.03- 81.3 87.6----
2024-07-16 01:18 am SE 1.9 4.1----30.03- 81.3 87.6----
2024-07-16 01:12 am SE 4.1 5.1----30.03- 81.3 87.6----
2024-07-16 01:06 amSSE 2.9 5.1----30.03- 81.5 87.6----
2024-07-16 01:00 am SE 2.9 4.1----30.03+0.00 81.5 87.6----
2024-07-16 12:54 am SE 2.9 6.0----30.03- 81.5 87.6----
2024-07-16 12:48 am SE 4.1 5.1----30.03-- 87.6----
2024-07-16 12:42 am SE 2.9 5.1----30.03-- 87.6----
2024-07-16 12:36 amSSE 4.1 5.1----30.03-- 87.6----
2024-07-16 12:30 amSSE 4.1 5.1----30.03- 81.0 87.6----
2024-07-16 12:24 amSSE 1.9 2.9----30.03- 80.8 87.6----
2024-07-16 12:18 amESE 1.0 1.9----30.03- 80.8 87.6----
2024-07-16 12:12 amESE 1.0 1.9----30.03- 81.0 87.6----
2024-07-16 12:06 am- 0.0 1.0----30.03- 81.1 87.6----
2024-07-16 12:00 am- 0.0 0.0----30.03+0.01 81.1 87.6----
2024-07-15 11:54 pm- 0.0 0.0----30.03- 81.1 87.6----
2024-07-15 11:48 pm- 0.0 0.0----30.03- 81.1 87.6----
2024-07-15 11:42 pm- 0.0 0.0----30.03- 81.3 87.6----
2024-07-15 11:36 pm- 0.0 1.9----30.03- 81.3 87.6----
2024-07-15 11:30 pm- 0.0 1.0----30.03- 81.1 87.6----
2024-07-15 11:24 pm- 0.0 1.0----30.03- 81.1 87.6----
2024-07-15 11:18 pm- 0.0 1.0----30.03- 81.3 87.6----
2024-07-15 11:12 pm- 0.0 1.0----30.03- 81.3 87.6----
2024-07-15 11:06 pm- 0.0 1.0----30.02- 81.5 87.6----
2024-07-15 11:00 pm- 0.0 0.0----30.02+0.01 81.5 87.6----
2024-07-15 10:54 pm- 0.0 1.0----30.02- 81.5 87.6----
2024-07-15 10:48 pm- 0.0 0.0----30.02-- 87.6----
2024-07-15 10:42 pm- 0.0 0.0----30.02-- 87.6----
2024-07-15 10:36 pm- 0.0 1.0----30.01-- 87.6----
2024-07-15 10:30 pm- 0.0 1.0----30.02- 81.7 87.6----
2024-07-15 10:24 pm- 0.0 1.0----30.02- 81.9 87.6----
2024-07-15 10:18 pm- 0.0 1.0----30.02- 82.0 87.6----
2024-07-15 10:12 pm- 0.0 1.0----30.02- 82.2 87.6----
2024-07-15 10:06 pm- 0.0 1.0----30.02- 82.2 87.6----
2024-07-15 10:00 pm- 0.0 0.0----30.02+0.00 82.0 87.6----
2024-07-15 09:54 pm- 0.0 0.0----30.02- 82.0 87.6----
2024-07-15 09:48 pm- 0.0 0.0----30.02- 81.9 87.6----
2024-07-15 09:42 pm- 0.0 0.0----30.01- 82.0 87.6----
2024-07-15 09:36 pm- 0.0 1.0----30.01- 82.4 87.6----
2024-07-15 09:30 pm- 0.0 1.0----30.01- 82.4 87.6----
2024-07-15 09:24 pm NE 1.9 1.9----30.01- 82.8 87.6----
2024-07-15 09:18 pm- 0.0 1.0----30.01- 82.6 87.6----
2024-07-15 09:12 pm- 0.0 1.9----30.01- 82.9 87.6----
2024-07-15 09:06 pm NE 1.0 1.9----30.01- 83.1 87.6----
2024-07-15 09:00 pm E 1.9 1.9----30.01-0.01 83.3 87.6----
2024-07-15 08:54 pm- 0.0 1.0----30.01- 82.8 87.6----
2024-07-15 08:48 pm W 1.0 1.9----30.01- 82.9 87.6----
2024-07-15 08:42 pm W 1.0 1.0----30.01- 82.9 87.6----
2024-07-15 08:36 pm- 0.0 1.0----30.01- 83.3 87.6----
2024-07-15 08:30 pm- 0.0 0.0----30.01- 83.7 87.6----
2024-07-15 08:24 pm- 0.0 1.0----30.01- 83.8 87.6----
2024-07-15 08:18 pm- 0.0 1.9----30.01- 84.4 87.6----
2024-07-15 08:12 pm S 1.9 1.9----30.01- 84.6 87.6----
2024-07-15 08:06 pm SW 1.0 2.9----30.01- 84.6 87.6----
2024-07-15 08:00 pm W 1.0 2.9----30.01+0.00 84.9 87.6----
2024-07-15 07:54 pmWSW 1.0 4.1----30.01- 85.6 87.6----
2024-07-15 07:48 pm S 2.9 5.1----30.01- 85.8 87.6----
2024-07-15 07:42 pm S 4.1 6.0----30.01- 85.8 87.6----
2024-07-15 07:36 pm S 4.1 5.1----30.00- 86.0 87.6----
2024-07-15 07:30 pm S 4.1 5.1----30.01- 86.5 87.6----
2024-07-15 07:24 pmSSW 1.9 4.1----30.01- 87.1 87.6----
2024-07-15 07:18 pmSSW 2.9 5.1----30.01- 87.1 87.6----
2024-07-15 07:12 pmSSW 2.9 4.1----30.01- 87.4 87.6----
2024-07-15 07:06 pmWSW 1.9 2.9----30.02- 88.0 87.6----
2024-07-15 07:00 pm SW 2.9 2.9----30.02-0.02- 87.6----
2024-07-15 06:54 pmSSW 2.9 4.1----30.02-- 87.6----
2024-07-15 06:48 pm S 2.9 5.1----30.02-------
2024-07-15 06:42 pmSSW 4.1 5.1----30.02-------
2024-07-15 06:36 pm S 4.1 6.0----30.02-------
2024-07-15 06:30 pm S 5.1 6.0----30.01-------
2024-07-15 06:24 pm S 4.1 5.1----30.02-------
2024-07-15 06:18 pm S 5.1 6.0----30.02- 87.6 87.6----
2024-07-15 06:12 pm S 1.9 2.9----30.02- 87.8 87.6----
2024-07-15 06:06 pm S 1.9 2.9----30.03- 87.8 87.6----
2024-07-15 06:00 pm SE 2.9 2.9----30.02-0.06 87.6 87.6----
2024-07-15 05:54 pmSSE 2.9 2.9----30.03- 87.4 87.4----
2024-07-15 05:48 pm- 0.0 4.1----30.03-- 87.6----
2024-07-15 05:42 pmSSE 2.9 4.1----30.03-- 87.6----
2024-07-15 05:36 pm S 4.1 5.1----30.02-- 87.4----
2024-07-15 05:30 pm S 2.9 6.0----30.02- 86.9-----
2024-07-15 05:24 pm S 5.1 7.0----30.02- 86.9-----
2024-07-15 05:18 pm-------30.02- 86.5 87.4----
2024-07-15 05:12 pm-------30.02- 86.4 87.4----
2024-07-15 05:06 pm-------30.01- 86.2 87.4----
2024-07-15 05:00 pm S 5.1 6.0----30.01-0.10 85.8 87.6----
2024-07-15 04:54 pm S 5.1 6.0----30.01- 85.6 87.6----
2024-07-15 04:48 pmSSW 4.1 6.0------ 85.3 87.4----
2024-07-15 04:42 pm S 4.1 5.1------ 84.9 87.4----
2024-07-15 04:36 pm S 5.1 5.1------ 84.7 87.4----
2024-07-15 04:30 pm S 5.1 6.0----30.02- 84.6 87.4----
2024-07-15 04:24 pm SW 1.9 5.1----30.03- 85.3 87.4----
2024-07-15 04:18 pmSSW 1.9 4.1----30.03- 84.0 87.4----
2024-07-15 04:12 pm S 4.1 5.1----30.03- 83.3 87.4----
2024-07-15 04:06 pm S 2.9 4.1----30.03- 82.9 87.4----
2024-07-15 04:00 pm S 1.9 4.1----30.04-0.05- 87.4----
2024-07-15 03:54 pm S 2.9 5.1----30.04-- 87.3----
2024-07-15 03:48 pm S 2.9 4.1----30.05- 81.9 87.3----
2024-07-15 03:42 pmSSE 1.9 2.9----30.05- 81.3 87.3----
2024-07-15 03:36 pmSSW 1.9 2.9----30.05- 81.1 87.3----
2024-07-15 03:30 pm- 0.0 1.9----30.06- 80.8 87.3----
2024-07-15 03:24 pm SW 1.9 2.9----30.06- 80.4 87.1----
2024-07-15 03:18 pm SE 1.9 2.9----30.07- 79.2 87.1----
2024-07-15 03:12 pm S 1.9 2.9----30.07- 78.8 87.1----
2024-07-15 03:06 pm SW 2.9 2.9----30.08- 78.1 87.1----
2024-07-15 03:00 pm S 1.9 4.1----30.08-0.02 77.5 87.1----
2024-07-15 02:54 pm SE 4.1 8.0----30.08- 76.6 87.1----
2024-07-15 02:48 pm SE 7.0 11.1----30.09-- 87.1----
2024-07-15 02:42 pmSSE 8.0 11.1----30.09-- 87.1----
2024-07-15 02:36 pm S 5.1 8.9----30.09-- 87.1----
2024-07-15 02:30 pm SE 5.1 7.0----30.09- 77.0 87.1----
2024-07-15 02:24 pmSSE 5.1 8.0----30.10- 77.0 87.1----
2024-07-15 02:18 pmSSE 7.0 9.9----30.11- 76.8 87.1----
2024-07-15 02:12 pmSSE 8.0 15.0----30.13- 76.6 87.1----
2024-07-15 02:06 pmSSE 12.0 15.9----30.12- 76.5 87.1----
2024-07-15 02:00 pm SE 13.0 17.1----30.12+0.00 76.8 87.1----
2024-07-15 01:54 pm SE 11.1 15.0----30.13- 78.3 87.1----
2024-07-15 01:48 pm SE 8.0 13.0----30.13- 79.3 87.3----
2024-07-15 01:42 pm SE 5.1 8.9----30.11- 80.4 87.3----
2024-07-15 01:36 pm S 8.9 11.1----30.09- 80.8 87.3----
2024-07-15 01:30 pmSSW 8.9 11.1----30.09- 81.9 87.3----
2024-07-15 01:24 pmSSW 8.0 13.0----30.09- 82.0 87.3----
2024-07-15 01:18 pmSSW 11.1 15.0----30.09- 82.6 87.3----
2024-07-15 01:12 pm SW 8.0 11.1----30.10- 84.4 87.3----
2024-07-15 01:06 pm W 4.1 8.0----30.09- 85.5 87.3----
2024-07-15 01:00 pmWSW 5.1 8.0----30.09-0.03 86.5 87.3----
2024-07-15 12:54 pm SW 4.1 8.0----30.10- 89.2 87.3----
2024-07-15 12:48 pmNNW 2.9 6.0----30.09- 89.6 87.3----
2024-07-15 12:42 pm- 0.0 4.1----30.09- 90.3 87.3----
2024-07-15 12:36 pmWSW 1.9 5.1----30.09- 90.1 87.3----
2024-07-15 12:30 pmNNW 2.9 5.1----30.09- 89.6 87.3----
2024-07-15 12:24 pmWNW 4.1 6.0----30.10- 89.1 87.3----
2024-07-15 12:18 pmNNW 5.1 6.0----30.10- 89.4 87.3----
2024-07-15 12:12 pm W 1.9 5.1----30.10- 89.4 87.3----
2024-07-15 12:06 pm W 1.9 4.1----30.10- 88.9 87.3----
2024-07-15 12:00 pm- 0.0 1.9----30.11-0.03 89.1 87.3----
2024-07-15 11:54 am S 1.9 2.9----30.11- 88.7 87.3----
2024-07-15 11:48 amWNW 1.9 6.0----30.11- 88.9 87.3----
2024-07-15 11:42 amNNW 5.1 7.0----30.11- 88.0 87.3----
2024-07-15 11:36 amNNW 2.9 5.1----30.11- 88.2 87.3----
2024-07-15 11:30 am N 4.1 7.0----30.11- 87.8 87.3----
2024-07-15 11:24 am NW 4.1 7.0----30.11- 87.3 87.3----
2024-07-15 11:18 am NW 5.1 8.9----30.11- 87.6 87.3----
2024-07-15 11:12 am NW 5.1 8.0----30.11- 88.0 87.3----
2024-07-15 11:06 am N 2.9 8.0----30.12- 87.6 87.3----
2024-07-15 11:00 amWNW 2.9 8.9----30.12+0.00 87.4 87.3----
2024-07-15 10:54 amNNW 2.9 7.0----30.12- 87.6 87.3----
2024-07-15 10:48 amWNW 2.9 7.0----30.12- 87.3 87.3----
2024-07-15 10:42 am NW 5.1 8.0----30.12- 87.4 87.3----
2024-07-15 10:36 amNNE 4.1 6.0----30.12- 86.7 87.3----
2024-07-15 10:30 amWNW 2.9 6.0----30.12- 87.1 87.3----
2024-07-15 10:24 amNNE 2.9 5.1----30.12- 86.4 87.3----
2024-07-15 10:18 amNNW 5.1 8.0----30.11- 86.2 87.3----
2024-07-15 10:12 am N 2.9 5.1----30.12- 86.0 87.3----
2024-07-15 10:06 am N 4.1 5.1----30.12- 86.2 87.3----
2024-07-15 10:00 am NW 4.1 6.0----30.12+0.03 85.5 87.3----
2024-07-15 09:54 amWNW 4.1 7.0----30.13- 85.3 87.3----
2024-07-15 09:48 amWNW 4.1 7.0----30.13- 85.6 87.3----
2024-07-15 09:42 amWNW 1.9 5.1----30.13- 86.0 87.3----
2024-07-15 09:36 am NW 2.9 5.1----30.13- 86.2 87.3----
2024-07-15 09:30 amNNW 2.9 7.0----30.13- 85.6 87.3----
2024-07-15 09:24 amWNW 4.1 6.0----30.13- 85.3 87.3----
2024-07-15 09:18 am N 2.9 7.0----30.13- 85.5 87.3----
2024-07-15 09:12 amNNW 5.1 7.0----30.13- 85.3 87.3----
2024-07-15 09:06 am N 1.9 7.0----30.13- 85.3 87.3----
2024-07-15 09:00 am N 2.9 6.0----30.13+0.04 84.9 87.3----
2024-07-15 08:54 am N 4.1 7.0----30.13- 84.6 87.3----
2024-07-15 08:48 am N 2.9 5.1----30.13- 84.6 87.3----
2024-07-15 08:42 am NW 4.1 7.0----30.13- 84.2 87.3----
2024-07-15 08:36 amNNW 4.1 6.0----30.12- 84.0 87.3----
2024-07-15 08:30 amNNW 5.1 6.0----30.12- 83.5 87.3----
2024-07-15 08:24 am NW 5.1 7.0----30.12- 83.3 87.3----
2024-07-15 08:18 amNNW 5.1 7.0----30.12- 83.1 87.3----
2024-07-15 08:12 am NW 2.9 5.1----30.12- 82.9 87.3----
2024-07-15 08:06 am NW 2.9 5.1----30.12- 82.6 87.3----
2024-07-15 08:00 amNNW 1.9 4.1----30.12+0.05 82.4 87.3----
2024-07-15 07:54 amNNW 2.9 5.1----30.11- 81.9 87.3----